Flag for U.S.A. Weather past 2 weeks in Lakewood, Colorado, U.S.A.

21 °F

Light snow. Ice fog.

Feels Like: 9 °F
Forecast: 16 / 24 °F
Wind: 12 mph from Northeast

Location: Centennial Airport

Current Time: Nov 26, 2015 at 1:26:19 PM

Latest Report: Nov 26, 2015 at 12:53 PM

Visibility: 4 mi

Pressure: 30.32 "Hg (24.44 "Hg at 1683m altitude)

Humidity: 88%

Dew point: 18 °F

Location of LakewoodLocation

Historic Weather in Lakewood — Graph


Lakewood temperature yesterday

Maximum temperature yesterday: 48 °F (at 9:53 AM)
Minimum temperature yesterday: 25 °F (at 9:53 PM)
Average temperature yesterday: 34 °F

Past Weeks' High & Low Weather Summary

High63 °F (Nov 14, 1:53 PM)100% (Nov 16, 3:53 PM)30.53 "Hg (Nov 16, 3:53 PM)
Low11 °F (Nov 21, 6:53 AM)11% (Nov 15, 1:53 PM)29.37 "Hg (Nov 16, 11:53 AM)
Average37 °F54%29.98 "Hg
* Reported Nov 11 11:53 AM — Nov 26 11:53 AM, Lakewood, Weather by CustomWeather, © 2015

Note: Actual official high and low records may vary slightly from our data, if they occured in-between our weather recording intervals... More about our weather records


Lakewood weather history for previous 24 hours

Time TempWeatherWind HumidityBarometerVisibility
11:53 AM
Thu, Nov 26
21 °FLight snow. Ice fog.8 mph92%30.32 "Hg6 mi
10:53 AM21 °FLight snow. Ice fog.8 mph92%30.33 "Hg5 mi
9:53 AM22 °FLight snow. Ice fog.10 mph92%30.32 "Hg4 mi
8:53 AM22 °FLight snow. Ice fog.12 mph96%30.29 "Hg4 mi
7:53 AM23 °FLight snow. Ice fog.8 mph96%30.26 "Hg5 mi
6:53 AM23 °FLight freezing rain. Ice fog.8 mph92%30.24 "Hg4 mi
5:53 AM23 °FLight freezing rain. Ice fog.8 mph96%30.21 "Hg4 mi
4:53 AM23 °FLight freezing rain. Ice fog.6 mph96%30.19 "Hg3 mi
3:53 AM23 °FLight freezing rain. Ice fog.7 mph96%30.16 "Hg4 mi
2:53 AM24 °FLight freezing rain. Ice fog.7 mph96%30.14 "Hg3 mi
1:53 AM24 °FLight freezing rain. Ice fog.9 mph96%30.12 "Hg3 mi
12:53 AM24 °FLight freezing rain. Ice fog.8 mph96%30.11 "Hg3 mi
11:53 PM
Wed, Nov 25
25 °FLight freezing rain. Ice fog.8 mph96%30.09 "Hg3 mi
10:53 PM25 °FLight freezing rain. Ice fog.7 mph96%30.09 "Hg2 mi
9:53 PM25 °FLight freezing rain. Ice fog.5 mph96%30.04 "Hg2 mi
8:53 PM26 °FLight freezing rain. Ice fog.6 mph96%30.05 "Hg4 mi
7:53 PM27 °FOvercast.7 mph89%30.09 "Hg10 mi
6:53 PM27 °FOvercast.6 mph89%30.06 "Hg10 mi
5:53 PM28 °FMostly cloudy.12 mph89%30.00 "Hg10 mi
4:53 PM30 °FMostly cloudy.14 mph82%30.00 "Hg10 mi
3:53 PM33 °FOvercast.6 mph75%29.96 "Hg10 mi
2:53 PM34 °FMostly cloudy.7 mph76%29.92 "Hg10 mi
1:53 PM36 °FOvercast.8 mph70%29.93 "Hg10 mi
Weather by CustomWeather, © 2015

See weather overviewHow to use our weather pages